Location: Handeloh
(53.2500°N, 9.8330°E)
Time: 16:45:47
(UTC+01:00)

S-56A Canister/Altair - Pass Details

Date: 25 November 2019
Orbit: 633 x 2499 km, 38.9° (Epoch: 10 December)

Event Time Altitude Azimuth Distance (km) Brightness Sun altitude
Rises 17:11:14 0° 247° (WSW) 5,586 14.5 -8.5°
Reaches altitude 10° 17:15:44 10° 239° (WSW) 4,301 12.9 -9.1°
Maximum altitude 17:24:56 32° 183° (S) 2,310 10.2 -10.4°
Drops below altitude 10° 17:31:30 10° 123° (ESE) 3,033 10.2 -11.3°
Enters shadow 17:33:29 - 115° (ESE) 3,574 10.5 -11.6°
Sets 17:34:07 0° 113° (ESE) 3,766 - -11.7°
